EW7994 6mi Mitkof highway Petersburg CWOPAK US current weather conditions

sailwx.info

Wind from 292

Air temperature 12.2° C
Dewpoint -1.0° C

Last reported at 2020-Aug-12 05:04 UTC.
Time now 2020-Aug-12 06:08 UTC

Location: N 56°42' W 132°56'.
View on Google Maps.

See reports from other nearby stations

  
Tides and Currents Weather Stations Pressure Air Temp Water Temp Dewpoint Dewpoint Depression Visibility Wind Speed Wind Dir Waves Ship Positions
date/time (UTC)wind fromknots sea level pressurealtimeterstation pressurevisibilityair tempwater tempwave heightnotes
2020-Aug-12 05:04 292 12.2
2020-Aug-12 04:54 292 11.7
2020-Aug-12 04:45 292 12.2
2020-Aug-12 04:35 270 12.2
2020-Aug-12 04:26 337 12.2
2020-Aug-12 04:16 337 12.2
2020-Aug-12 04:06 337 12.2
2020-Aug-12 03:57 337 12.8
2020-Aug-12 03:47 337 12.8
2020-Aug-12 03:38 337 12.8
2020-Aug-12 03:28 337 12.8
2020-Aug-12 03:19 337 13.3
2020-Aug-12 03:10 337 13.3
2020-Aug-12 03:00 337 13.3
2020-Aug-12 02:51 337 13.9
2020-Aug-12 02:41 337 13.9
2020-Aug-12 02:31 337 13.9
2020-Aug-12 02:21 337 13.9
2020-Aug-12 02:11 337 14.4
2020-Aug-12 02:02 337 14.4
2020-Aug-12 01:52 315 14.4
2020-Aug-12 01:43 315 14.4
2020-Aug-12 01:34 315 14.4
2020-Aug-12 01:24 315 15.0
2020-Aug-12 01:15 081 15.6
2020-Aug-12 01:05 112 15.6
2020-Aug-12 00:56 112 15.6
2020-Aug-12 00:46 112 15.6
2020-Aug-12 00:36 112 15.0
2020-Aug-12 00:27 225 15.0
2020-Aug-12 00:18 225 15.6
2020-Aug-12 00:08 225 15.6
2020-Aug-11 23:58 180 15.6
2020-Aug-11 23:48 315 15.0
2020-Aug-11 23:38 315 15.6
2020-Aug-11 23:28 315 15.6
2020-Aug-11 23:18 315 15.0
2020-Aug-11 23:08 315 15.0
2020-Aug-11 22:58 315 14.4
2020-Aug-11 22:49 315 13.9
2020-Aug-11 22:39 315 14.4
2020-Aug-11 22:30 315 15.0
2020-Aug-11 22:20 315 15.6
2020-Aug-11 22:11 315 15.6
2020-Aug-11 22:02 315 16.1
2020-Aug-11 21:52 315 16.7
2020-Aug-11 21:42 315 17.2
2020-Aug-11 21:33 267 17.2
2020-Aug-11 21:24 112 16.7
2020-Aug-11 21:14 112 16.1
2020-Aug-11 21:04 112 15.6
2020-Aug-11 20:54 112 15.6
2020-Aug-11 20:45 112 15.6
2020-Aug-11 20:36 112 15.6
2020-Aug-11 20:26 337 15.6
2020-Aug-11 18:21 090 13.9
2020-Aug-11 18:04 315 13.9
2020-Aug-11 17:51 180 13.3
2020-Aug-11 17:42 180 13.3
2020-Aug-11 17:33 180 13.3
2020-Aug-11 17:23 180 12.8
2020-Aug-11 17:14 121 0 12.2
2020-Aug-11 14:49 135 10.6
2020-Aug-11 14:25 135 10.6
2020-Aug-11 14:16 135 10.6
2020-Aug-11 14:06 135 10.6
2020-Aug-11 13:57 135 10.6
2020-Aug-11 13:47 135 10.6
2020-Aug-11 13:38 135 10.6
2020-Aug-11 13:29 135 10.6
2020-Aug-11 13:19 135 10.6
2020-Aug-11 13:10 135 10.6
2020-Aug-11 13:01 135 10.6
2020-Aug-11 12:51 135 10.6
2020-Aug-11 12:42 135 10.6
2020-Aug-11 12:32 135 10.6
2020-Aug-11 12:22 135 10.6
2020-Aug-11 12:12 135 10.6
2020-Aug-11 12:02 135 10.6
2020-Aug-11 11:52 135 10.6
2020-Aug-11 11:43 135 10.6
2020-Aug-11 11:34 135 10.6
2020-Aug-11 11:24 135 10.6
2020-Aug-11 11:14 135 11.1
2020-Aug-11 11:04 135 10.6
2020-Aug-11 10:55 135 11.1
2020-Aug-11 10:45 135 11.1
2020-Aug-11 10:37 135 11.1
2020-Aug-11 10:26 135 11.1
2020-Aug-11 10:18 135 11.1
2020-Aug-11 10:08 135 11.1
2020-Aug-11 09:59 135 0 11.1
2020-Aug-11 09:49 135 10.6
2020-Aug-11 09:40 135 10.6
2020-Aug-11 09:30 135 10.6
2020-Aug-11 09:20 135 10.6
2020-Aug-11 09:10 135 11.1
2020-Aug-11 09:01 135 11.1
2020-Aug-11 08:52 135 11.1
2020-Aug-11 08:42 135 11.1
2020-Aug-11 08:32 135 11.1
2020-Aug-11 08:23 135 11.1
2020-Aug-11 08:14 135 11.1
2020-Aug-11 08:05 135 11.1
2020-Aug-11 07:55 135 11.1
2020-Aug-11 07:46 135 11.1
2020-Aug-11 07:36 135 10.6
2020-Aug-11 07:26 135 11.1
2020-Aug-11 07:17 135 11.1
2020-Aug-11 07:07 135 11.1
2020-Aug-11 06:58 135 11.1
2020-Aug-11 06:48 135 11.1
2020-Aug-11 06:38 135 11.1
2020-Aug-11 06:28 135 11.1
2020-Aug-11 06:19 135 11.1
2020-Aug-11 06:09 135 11.1
2020-Aug-11 05:59 135 10.6
2020-Aug-11 05:49 135 11.1
2020-Aug-11 05:39 135 11.7
2020-Aug-11 05:30 135 11.7
2020-Aug-11 05:20 135 11.7
2020-Aug-11 05:11 135 11.7
2020-Aug-11 05:01 135 11.7
2020-Aug-11 04:51 135 11.7
2020-Aug-11 04:41 135 11.7
2020-Aug-11 04:31 135 12.2
2020-Aug-11 04:22 135 12.2
2020-Aug-11 04:13 135 11.7
2020-Aug-11 04:03 135 12.2
2020-Aug-11 03:54 135 12.2
2020-Aug-11 03:44 135 12.2
2020-Aug-11 03:35 135 12.2
2020-Aug-11 03:25 135 12.2
2020-Aug-11 03:15 135 12.2
2020-Aug-11 03:06 135 12.2
2020-Aug-11 02:57 135 12.2
2020-Aug-11 02:47 135 12.2
2020-Aug-11 02:38 135 12.8
2020-Aug-11 02:28 114 12.8
2020-Aug-11 02:18 112 12.8
2020-Aug-11 02:09 112 0 12.8
2020-Aug-11 01:59 112 12.8
2020-Aug-11 01:49 112 12.8
2020-Aug-11 01:39 180 12.8
2020-Aug-11 01:29 135 12.2
2020-Aug-11 01:19 135 12.2
2020-Aug-11 01:09 135 12.2
2020-Aug-11 01:00 135 12.2
2020-Aug-11 00:50 127 0 12.2
2020-Aug-11 00:41 135 11.7
2020-Aug-11 00:31 112 0 12.2
2020-Aug-11 00:22 135 0 12.2
2020-Aug-11 00:13 138 1 12.2
2020-Aug-11 00:04 129 2 12.2
2020-Aug-10 23:54 119 1 12.2
2020-Aug-10 23:45 067 12.2
2020-Aug-10 23:35 135 0 12.2
2020-Aug-10 23:26 128 0 12.2
2020-Aug-10 23:16 143 0 12.2
2020-Aug-10 23:06 134 0 12.2
2020-Aug-10 22:57 157 12.2
2020-Aug-10 22:48 118 1 12.2
2020-Aug-10 22:39 141 0 12.2
2020-Aug-10 22:29 135 0 12.2
2020-Aug-10 22:20 120 0 12.8
2020-Aug-10 22:11 054 12.2
2020-Aug-10 22:02 135 0 12.2
2020-Aug-10 21:52 135 12.2
2020-Aug-10 21:42 143 0 12.2
2020-Aug-10 21:33 162 12.2
2020-Aug-10 21:23 126 0 12.2
2020-Aug-10 21:14 112 0 12.2
2020-Aug-10 21:04 180 0 12.2
2020-Aug-10 20:55 166 11.7
2020-Aug-10 20:45 114 0 12.2
2020-Aug-10 20:36 135 12.2
2020-Aug-10 20:26 167 12.2
2020-Aug-10 20:17 163 0 12.2
2020-Aug-10 20:07 136 0 12.2
2020-Aug-10 19:57 179 11.7
2020-Aug-10 19:48 135 12.2
2020-Aug-10 19:39 180 12.2
2020-Aug-10 19:30 135 12.2
2020-Aug-10 19:20 132 1 12.2
2020-Aug-10 19:11 142 2 11.7
2020-Aug-10 19:01 106 1 11.7
2020-Aug-10 18:51 127 12.2
2020-Aug-10 18:42 127 1 12.2
2020-Aug-10 18:32 135 12.2
2020-Aug-10 18:23 112 11.7
2020-Aug-10 18:13 142 1 12.2
2020-Aug-10 18:03 135 12.2
2020-Aug-10 17:54 140 0 12.2
2020-Aug-10 17:44 162 12.2
2020-Aug-10 17:35 095 0 11.7
2020-Aug-10 17:25 135 12.2
2020-Aug-10 17:15 135 11.7
2020-Aug-10 17:06 112 11.7
2020-Aug-10 16:56 180 11.7
2020-Aug-10 16:47 135 11.1
2020-Aug-10 16:38 112 11.7
2020-Aug-10 16:28 112 11.7
2020-Aug-10 16:18 112 11.7
2020-Aug-10 16:09 135 11.7
2020-Aug-10 15:59 112 11.7
2020-Aug-10 15:50 028 11.7
2020-Aug-10 15:41 157 12.2
2020-Aug-10 15:32 152 0 12.2
2020-Aug-10 15:22 132 1 12.2
2020-Aug-10 15:13 129 1 12.2
2020-Aug-10 15:04 133 3 12.2
2020-Aug-10 14:55 133 2 11.7
2020-Aug-10 14:45 128 4 12.2
2020-Aug-10 14:36 134 1 11.7
2020-Aug-10 14:27 128 3 11.7
2020-Aug-10 14:18 101 1 11.7
2020-Aug-10 14:09 112 11.7
2020-Aug-10 14:00 082 0 11.7
2020-Aug-10 13:50 121 1 12.2
2020-Aug-10 13:41 136 3 12.2
2020-Aug-10 13:31 143 3 12.2
2020-Aug-10 13:22 128 2 12.2
2020-Aug-10 13:12 127 1 12.2
2020-Aug-10 13:02 125 3 12.2
2020-Aug-10 12:52 107 0 12.2
2020-Aug-10 12:42 139 1 12.2
2020-Aug-10 12:32 136 3 12.2
2020-Aug-10 12:22 147 1 12.2
2020-Aug-10 12:13 144 1 12.2
2020-Aug-10 12:04 118 2 12.2
2020-Aug-10 11:55 122 2 12.2
2020-Aug-10 11:45 128 1 12.2
2020-Aug-10 11:35 135 1 12.2
2020-Aug-10 11:25 141 2 12.2
2020-Aug-10 11:15 117 1 12.2
2020-Aug-10 11:06 144 0 12.2
2020-Aug-10 10:56 099 2 12.2
2020-Aug-10 10:46 130 1 12.2
2020-Aug-10 10:36 135 12.8
2020-Aug-10 10:27 149 1 12.2
2020-Aug-10 10:17 132 1 12.8
2020-Aug-10 10:08 125 5 12.8
2020-Aug-10 09:58 131 2 12.8
2020-Aug-10 09:48 136 1 12.8
2020-Aug-10 09:38 138 2 12.8
2020-Aug-10 09:29 104 1 12.2
2020-Aug-10 09:19 173 1 12.2
2020-Aug-10 09:10 126 1 12.2
2020-Aug-10 09:01 131 2 12.2
2020-Aug-10 08:51 131 1 12.2
2020-Aug-10 08:42 187 1 12.2
2020-Aug-10 08:33 127 4 12.2
2020-Aug-10 08:23 141 1 12.2
2020-Aug-10 08:13 143 1 12.2
2020-Aug-10 08:04 134 12.2
2020-Aug-10 07:54 144 1 12.2
2020-Aug-10 07:45 134 1 12.8
2020-Aug-10 07:36 133 1 12.8
2020-Aug-10 07:26 143 4 12.8
2020-Aug-10 07:17 140 4 12.8
2020-Aug-10 07:07 135 0 12.2
2020-Aug-10 06:57 137 3 12.8
2020-Aug-10 06:47 132 2 12.8
2020-Aug-10 06:38 134 0 12.8
2020-Aug-10 06:29 116 3 12.8
2020-Aug-10 06:19 140 3 12.8
2020-Aug-10 06:10 126 4 12.8
2020-Aug-10 06:00 166 1 12.8